{"data":{"norad_id":60431,"intl_designator":"2024-144G","name":"STARLINK-32232","alt_names":[],"object_type":"PAYLOAD","status":"ACTIVE","operator":null,"country":"US","launch_date":"2024-08-12","launch_site_code":"AFETR","launch_vehicle":null,"mission":null,"orbit_class":"UNKNOWN","rcs_meters":null,"size_class":null,"mass_kg":null,"dimensions":null,"purposes":["comms"],"wikipedia_slug":null,"has_3d_model":false,"image_url":null,"decayed_at":null,"tle_current":{"epoch":"2026-05-25T05:17:40.001568Z","epoch_age_seconds":49209,"freshness":"FRESH","line1":"1 60431U 24144G   26145.22060187  .00000032  00000+0  13211-4 0  9999","line2":"2 60431  53.1601 221.8531 0000857  76.8674 283.2422 15.30189631101026","mean_motion":15.30189631,"eccentricity":8.57e-5,"inclination_deg":53.1601,"raan_deg":221.8531,"arg_perigee_deg":76.8674,"mean_anomaly_deg":283.2422,"bstar":1.3211e-5,"rev_number":10102,"period_min":94.105983391022,"perigee_km":474.65869463349,"apogee_km":475.83336448476,"semimajor_km":6853.3830295591,"source":"CELESTRAK","updated_at":"2026-05-25T13:38:19.273651Z"}}}